Location: Alexandria
(38.8050°N, 77.0470°W)
Time: 22:40:12

Hubble Space Telescope - Pass Details

Date: 13 March 2018
Orbit: 537 x 541 km, 28.5° (Epoch: 23 March)

Event Time Altitude Azimuth Distance (km) Brightness Sun altitude
Rises 20:08:51 0° 234° (SW) 2,675 5.1 -11.6°
Reaches altitude 10° 20:11:43 10° 214° (SSW) 1,785 3.8 -12.2°
Maximum altitude 20:14:27 17° 172° (S) 1,384 2.7 -12.7°
Enters shadow 20:16:26 13° 139° (SE) 1,605 2.8 -13.1°
